Regional Weather Roundup
Issued by NWS State College, PA

Home | Current Version | Previous Version | Text Only | Print | Product List | Glossary Off
Versions: 1 2 3 4 5 6 7 8 9 10 11 12 13 14 15 16 17 18 19 20 21 22 23 24 25 26 27 28 29 30 31 32 33 34 35 36 37 38 39 40 41 42 43 44 45 46 47 48 49 50

000
ASUS41 KCTP 171410
RWRCTP

REGIONAL WEATHER ROUNDUP
NATIONAL WEATHER SERVICE STATE COLLEGE PA
1000 AM EDT WED SEP 17 2014

Note: "fair" indicates few or no clouds below 12,000 feet with no
significant weather and/or obstructions to visibility.

* = STATION THAT DOES NOT REPORT PRECIPITATION /E.G. RAIN...SNOW...ETC/
    THUNDER OR FOG.

PAZ002>004-007>009-013>016-020>023-029>032-171500-
WESTERN PENNSYLVANIA

CITY           SKY/WX    TMP DP  RH WIND       PRES   REMARKS
ERIE           MOSUNNY   59  48  67 S10       30.06R
MEADVILLE      SUNNY     55  49  80 VRB3      30.07S
FRANKLIN*      SUNNY     57  45  62 SW5       30.09S
NEW CASTLE     FAIR      55  55 100 CALM      30.09S
BEAVER COUNTY  PTSUNNY   57  50  77 CALM      30.08S
BUTLER*        MOSUNNY   57  48  72 CALM      30.09F
PITTSBURGH INT PTSUNNY   60  51  72 CALM      30.07S
PITTSBURGH     MOSUNNY   57  49  74 SE3       30.07S
INDIANA*       SUNNY     57  52  82 CALM      30.12R
LATROBE        SUNNY     55  54  94 CALM      30.09S
WASHINGTON CO* CLOUDY    54  52  94 CALM      30.08S
$$

PAZ004>006-010>012-017>019-024>028-033>037-041-042-045-046-049>053-171500-
CENTRAL PENNSYLVANIA

CITY           SKY/WX    TMP DP  RH WIND       PRES   REMARKS
BRADFORD       SUNNY     54  47  77 SW5       30.08S
DUBOIS         SUNNY     54  48  80 CALM      30.07S
CLEARFIELD     MOSUNNY   49  48  97 CALM      30.09S
JOHNSTOWN      MOSUNNY   53  48  83 SW5       30.09R
ALTOONA        PTSUNNY   55  50  83 CALM      30.09S
STATE COLLEGE  PTSUNNY   52  50  93 CALM      30.10S FOG
WILLIAMSPORT   CLOUDY    50  47  89 W5        30.09S FOG
SELINSGROVE    MOSUNNY   57  53  86 CALM      30.10S
FT INDIANTOWN  SUNNY     63  51  64 VRB3      30.08S
CAPITAL CITY   SUNNY     62  51  67 VRB3      30.08S
HARRISBURG     SUNNY     62  52  69 W3        30.07F
YORK           SUNNY     64  52  64 VRB3      30.08S
$$

PAZ038>040-043-044-047-048-054-055-060>062-067>071-171500-
EASTERN PENNSYLVANIA

CITY           SKY/WX    TMP DP  RH WIND       PRES   REMARKS
SCRANTON       SUNNY     52  46  80 SW3       30.09R
MOUNT POCONO   MOSUNNY   57  43  59 SW6       30.09R
ALLENTOWN      SUNNY     61  50  67 CALM      30.08S
QUAKERTOWN*    SUNNY     63  46  55 NE3       30.09S
READING        SUNNY     62  51  67 CALM      30.08S
LANCASTER      SUNNY     62  52  69 VRB3      30.08S
COATESVILLE    SUNNY     63  54  72 NE3       30.09S
POTTSTOWN      SUNNY     62  48  60 NE3       30.09S
BLUE BELL      SUNNY     64  50  59 E3        30.07S
DOYLESTOWN     MOSUNNY   62  47  57 CALM      30.07S
WILLOW GROVE   NOT AVBL
NORTH PHILA    SUNNY     67  45  45 NE7       30.09S
PHILADELPHIA   MOSUNNY   67  50  54 E7        30.07S
$$



USA.gov is the U.S. government's official web portal to all federal, state and local government web resources and services.